OHFUK LPMA-LPMA

Flight info

Callsign OHFUK
Flight time 0h 35m
Altitude 4000
Route MARCU
Aircraft PC12/L-SDE3FGHIRWY/S

Departure

Time 2026-05-05 18:26
Airport Cristiano Ronaldo International Airport (LPMA)

Arrival

Time 2026-05-05 19:01
Airport Cristiano Ronaldo International Airport (LPMA)
Time Latitude Longitude Altitude Speed Heading
2026-05-05 18:21 33.12830 -16.29755 3005 ft 186 kts 96°
2026-05-05 18:21 33.12534 -16.28298 2997 ft 184 kts 117°
2026-05-05 18:21 33.11597 -16.27248 2987 ft 186 kts 146°
2026-05-05 18:22 33.10347 -16.26935 2991 ft 191 kts 177°
2026-05-05 18:22 33.09113 -16.27483 2993 ft 192 kts 213°
2026-05-05 18:22 33.08182 -16.28630 2992 ft 188 kts 224°
2026-05-05 18:22 33.07346 -16.29789 3004 ft 187 kts 226°
2026-05-05 18:23 33.06496 -16.30944 2984 ft 182 kts 224°
2026-05-05 18:23 33.05669 -16.32042 2995 ft 177 kts 224°
2026-05-05 18:23 33.04853 -16.33131 3007 ft 176 kts 224°
2026-05-05 18:23 33.04040 -16.34222 2994 ft 175 kts 224°
2026-05-05 18:24 33.03210 -16.35332 3009 ft 185 kts 224°
2026-05-05 18:24 33.02328 -16.36514 3010 ft 195 kts 225°
2026-05-05 18:24 33.01410 -16.37747 3004 ft 202 kts 226°
2026-05-05 18:24 33.00457 -16.39028 2998 ft 211 kts 224°
2026-05-05 18:25 32.99472 -16.40347 2996 ft 214 kts 225°
2026-05-05 18:25 32.98815 -16.41227 2997 ft 216 kts 226°
2026-05-05 18:25 32.97468 -16.43031 2998 ft 218 kts 225°
2026-05-05 18:25 32.96461 -16.44380 3000 ft 217 kts 225°
2026-05-05 18:26 32.95461 -16.45717 2998 ft 216 kts 225°
2026-05-05 18:26 32.94455 -16.47060 2993 ft 218 kts 225°
2026-05-05 18:26 32.93436 -16.48419 3007 ft 223 kts 225°
2026-05-05 18:26 32.92410 -16.49790 3002 ft 225 kts 225°
2026-05-05 18:27 32.91356 -16.51200 2995 ft 224 kts 225°
2026-05-05 18:27 32.90322 -16.52581 2998 ft 223 kts 226°
2026-05-05 18:27 32.89302 -16.53942 2991 ft 223 kts 225°
2026-05-05 18:27 32.88263 -16.55327 3012 ft 226 kts 225°
2026-05-05 18:28 32.86118 -16.58185 3000 ft 233 kts 226°
2026-05-05 18:28 32.84976 -16.59507 2994 ft 224 kts 213°
2026-05-05 18:28 32.83720 -16.60541 2991 ft 218 kts 211°
2026-05-05 18:29 32.82475 -16.61550 2993 ft 214 kts 210°
2026-05-05 18:29 32.81257 -16.62560 2999 ft 213 kts 211°
2026-05-05 18:29 32.80037 -16.63576 3001 ft 216 kts 212°
2026-05-05 18:29 32.78796 -16.64606 3001 ft 217 kts 212°
2026-05-05 18:30 32.77556 -16.65631 2997 ft 217 kts 213°
2026-05-05 18:30 32.76349 -16.66633 2990 ft 205 kts 212°
2026-05-05 18:30 32.75268 -16.67534 2990 ft 177 kts 211°
2026-05-05 18:30 32.74301 -16.68332 2821 ft 168 kts 211°
2026-05-05 18:31 32.73308 -16.69145 2376 ft 179 kts 212°
2026-05-05 18:31 32.72270 -16.70000 1873 ft 181 kts 211°
2026-05-05 18:31 32.71269 -16.70830 1379 ft 171 kts 212°
2026-05-05 18:31 32.70342 -16.71597 1188 ft 155 kts 210°
2026-05-05 18:32 32.69485 -16.72303 1103 ft 145 kts 210°
2026-05-05 18:32 32.68684 -16.72961 1068 ft 138 kts 213°
2026-05-05 18:32 32.67852 -16.73584 1010 ft 143 kts 211°
2026-05-05 18:32 32.67027 -16.74225 1010 ft 141 kts 214°
2026-05-05 18:33 32.66214 -16.74912 1006 ft 148 kts 214°
2026-05-05 18:33 32.65364 -16.75644 1007 ft 157 kts 215°
2026-05-05 18:33 32.64472 -16.76423 1010 ft 161 kts 215°
2026-05-05 18:33 32.63552 -16.77228 940 ft 170 kts 215°
2026-05-05 18:34 32.62499 -16.78199 814 ft 212 kts 217°
2026-05-05 18:34 32.61244 -16.79310 836 ft 234 kts 216°
2026-05-05 18:34 32.59925 -16.80454 1119 ft 234 kts 214°
2026-05-05 18:34 32.58423 -16.81032 1486 ft 223 kts 182°
2026-05-05 18:35 32.56908 -16.81159 1993 ft 215 kts 179°
2026-05-05 18:35 32.55421 -16.81302 2495 ft 212 kts 183°
2026-05-05 18:35 32.53968 -16.81545 2960 ft 211 kts 185°
2026-05-05 18:35 32.52455 -16.81827 2995 ft 229 kts 186°
2026-05-05 18:36 32.50840 -16.82122 2996 ft 238 kts 187°
2026-05-05 18:36 32.49203 -16.82414 2992 ft 238 kts 185°
2026-05-05 18:36 32.47564 -16.82701 2997 ft 238 kts 185°
2026-05-05 18:36 32.45945 -16.82983 2996 ft 238 kts 186°
2026-05-05 18:37 32.44333 -16.83462 2998 ft 241 kts 197°
2026-05-05 18:37 32.42768 -16.84151 2982 ft 239 kts 199°
2026-05-05 18:37 32.41246 -16.84891 2974 ft 236 kts 205°
2026-05-05 18:37 32.39872 -16.85946 2970 ft 236 kts 218°
2026-05-05 18:38 32.38769 -16.87352 2967 ft 233 kts 239°
2026-05-05 18:38 32.38061 -16.89058 2969 ft 229 kts 248°
2026-05-05 18:38 32.37423 -16.90802 2983 ft 234 kts 248°
2026-05-05 18:38 32.36764 -16.92609 2981 ft 243 kts 242°
2026-05-05 18:39 32.35541 -16.94002 2977 ft 251 kts 205°
2026-05-05 18:39 32.33899 -16.94334 2983 ft 228 kts 167°
2026-05-05 18:39 32.32610 -16.93544 2974 ft 196 kts 124°
2026-05-05 18:39 32.32208 -16.92198 2991 ft 164 kts 79°
2026-05-05 18:40 32.32521 -16.90950 2972 ft 155 kts 66°
2026-05-05 18:40 32.32981 -16.89854 2968 ft 145 kts 44°
2026-05-05 18:40 32.33819 -16.89258 2985 ft 144 kts 23°
2026-05-05 18:40 32.34830 -16.88749 2994 ft 173 kts 27°
2026-05-05 18:41 32.36006 -16.88135 2976 ft 193 kts 27°
2026-05-05 18:41 32.37242 -16.87479 2957 ft 194 kts 25°
2026-05-05 18:41 32.38450 -16.86839 2977 ft 188 kts 25°
2026-05-05 18:41 32.39635 -16.86200 2975 ft 185 kts 27°
2026-05-05 18:42 32.40788 -16.85516 2969 ft 184 kts 30°
2026-05-05 18:42 32.41916 -16.84839 2975 ft 187 kts 28°
2026-05-05 18:42 32.43107 -16.84135 2991 ft 195 kts 28°
2026-05-05 18:42 32.44344 -16.83407 2997 ft 201 kts 28°
2026-05-05 18:43 32.45613 -16.82659 2990 ft 206 kts 28°
2026-05-05 18:43 32.46899 -16.81904 2980 ft 207 kts 28°
2026-05-05 18:43 32.48187 -16.81147 2992 ft 207 kts 29°
2026-05-05 18:43 32.49479 -16.80386 2989 ft 207 kts 27°
2026-05-05 18:44 32.50763 -16.79630 2993 ft 206 kts 29°
2026-05-05 18:44 32.52049 -16.78873 2984 ft 207 kts 28°
2026-05-05 18:44 32.53333 -16.78116 2993 ft 206 kts 29°
2026-05-05 18:44 32.54619 -16.77358 2989 ft 206 kts 29°
2026-05-05 18:45 32.55901 -16.76601 2991 ft 206 kts 28°
2026-05-05 18:45 32.57182 -16.75845 2984 ft 206 kts 29°
2026-05-05 18:45 32.58469 -16.75086 2993 ft 206 kts 29°
2026-05-05 18:45 32.59733 -16.74341 2986 ft 205 kts 29°
2026-05-05 18:46 32.61014 -16.73584 2994 ft 205 kts 30°
2026-05-05 18:46 32.62293 -16.72828 2988 ft 205 kts 29°
2026-05-05 18:46 32.63569 -16.72075 2996 ft 204 kts 30°
2026-05-05 18:46 32.64841 -16.71323 2985 ft 204 kts 30°
2026-05-05 18:47 32.66102 -16.70577 2989 ft 203 kts 29°
2026-05-05 18:47 32.67368 -16.69829 2941 ft 203 kts 27°
2026-05-05 18:47 32.68661 -16.69063 2905 ft 211 kts 26°
2026-05-05 18:47 32.69985 -16.68279 2908 ft 214 kts 26°
2026-05-05 18:48 32.71322 -16.67487 2906 ft 216 kts 26°
2026-05-05 18:48 32.72666 -16.66690 2979 ft 214 kts 26°
2026-05-05 18:48 32.73998 -16.65902 2995 ft 215 kts 26°
2026-05-05 18:48 32.75272 -16.64994 2990 ft 214 kts 43°
2026-05-05 18:49 32.76131 -16.63561 2996 ft 214 kts 59°
2026-05-05 18:49 32.76853 -16.62024 2999 ft 212 kts 61°
2026-05-05 18:49 32.77553 -16.60502 2997 ft 208 kts 61°
2026-05-05 18:49 32.78237 -16.59010 2996 ft 204 kts 61°
2026-05-05 18:50 32.78909 -16.57542 2999 ft 200 kts 59°
2026-05-05 18:50 32.79533 -16.56093 3001 ft 193 kts 60°
2026-05-05 18:50 32.80099 -16.54669 2999 ft 189 kts 61°
2026-05-05 18:50 32.80642 -16.53254 2996 ft 186 kts 61°
2026-05-05 18:51 32.81291 -16.51989 2995 ft 175 kts 36°
2026-05-05 18:51 32.82426 -16.51722 3014 ft 172 kts 350°
2026-05-05 18:51 32.83480 -16.52364 3010 ft 180 kts 320°
2026-05-05 18:51 32.84091 -16.53700 3009 ft 189 kts 295°
2026-05-05 18:52 32.84479 -16.55200 3009 ft 190 kts 292°
2026-05-05 18:52 32.84841 -16.56718 3010 ft 191 kts 292°
2026-05-05 18:52 32.85020 -16.58291 3009 ft 199 kts 268°
2026-05-05 18:52 32.84451 -16.59811 3011 ft 209 kts 232°
2026-05-05 18:53 32.83312 -16.60894 3009 ft 209 kts 216°
2026-05-05 18:53 32.82133 -16.61835 3002 ft 196 kts 216°
2026-05-05 18:53 32.81069 -16.62706 2990 ft 177 kts 218°
2026-05-05 18:53 32.80089 -16.63523 2991 ft 168 kts 217°
2026-05-05 18:54 32.79152 -16.64304 2991 ft 162 kts 217°
2026-05-05 18:54 32.78240 -16.65061 2993 ft 158 kts 218°
2026-05-05 18:54 32.77342 -16.65804 2994 ft 156 kts 218°
2026-05-05 18:54 32.76446 -16.66546 2934 ft 160 kts 217°
2026-05-05 18:55 32.75826 -16.67062 2803 ft 168 kts 217°
2026-05-05 18:55 32.74540 -16.68128 2510 ft 170 kts 218°
2026-05-05 18:55 32.73565 -16.68934 2226 ft 171 kts 218°
2026-05-05 18:55 32.72588 -16.69740 1896 ft 169 kts 218°
2026-05-05 18:56 32.71661 -16.70504 1540 ft 161 kts 217°
2026-05-05 18:56 32.70763 -16.71243 1265 ft 153 kts 217°
2026-05-05 18:56 32.69901 -16.71955 1011 ft 147 kts 219°
2026-05-05 18:56 32.69126 -16.72592 1006 ft 144 kts 218°
2026-05-05 18:57 32.68286 -16.73268 1010 ft 148 kts 213°
2026-05-05 18:57 32.67404 -16.73905 1012 ft 147 kts 216°
2026-05-05 18:57 32.66558 -16.74552 1010 ft 142 kts 215°
2026-05-05 18:57 32.65734 -16.75178 1009 ft 139 kts 214°
2026-05-05 18:58 32.65185 -16.75592 1008 ft 138 kts 216°
2026-05-05 18:58 32.64496 -16.76319 996 ft 129 kts 254°
2026-05-05 18:58 32.64432 -16.77285 1003 ft 107 kts 289°
2026-05-05 18:58 32.64639 -16.78074 993 ft 97 kts 306°
2026-05-05 18:59 32.64931 -16.78769 1039 ft 92 kts 314°
2026-05-05 18:59 32.65337 -16.79371 967 ft 100 kts 321°
2026-05-05 18:59 32.65796 -16.79951 969 ft 92 kts 330°
2026-05-05 18:59 32.66376 -16.80184 877 ft 89 kts
2026-05-05 19:00 32.66986 -16.80113 729 ft 90 kts 14°
2026-05-05 19:00 32.67570 -16.79872 554 ft 86 kts 24°
2026-05-05 19:00 32.68054 -16.79460 488 ft 87 kts 37°
2026-05-05 19:00 32.68491 -16.78954 342 ft 87 kts 39°
2026-05-05 19:01 32.68925 -16.78453 216 ft 88 kts 41°
2026-05-05 19:01 32.69329 -16.77985 165 ft 68 kts 46°
2026-05-05 19:01 32.69544 -16.77734 171 ft 33 kts 39°
2026-05-05 19:01 32.69709 -16.77539 177 ft 32 kts 44°
2026-05-05 19:02 32.69860 -16.77362 182 ft 30 kts 49°
2026-05-05 19:02 32.69955 -16.77208 184 ft 18 kts 101°
2026-05-05 19:02 32.69830 -16.77190 179 ft 22 kts 214°
2026-05-05 19:02 32.69762 -16.77271 173 ft 20 kts 225°
2026-05-05 19:03 32.69710 -16.77334 167 ft 1 kts 231°
2026-05-05 19:03 32.69687 -16.77364 165 ft 5 kts 225°
2026-05-05 19:03 32.69648 -16.77412 165 ft 9 kts 226°
2026-05-05 19:03 32.69588 -16.77486 165 ft 12 kts 225°
2026-05-05 19:04 32.69533 -16.77555 165 ft 13 kts 226°
2026-05-05 19:04 32.69460 -16.77645 165 ft 14 kts 225°
2026-05-05 19:04 32.69405 -16.77713 165 ft 10 kts 226°
2026-05-05 19:04 32.69356 -16.77773 165 ft 11 kts 226°
2026-05-05 19:05 32.69310 -16.77830 165 ft 7 kts 226°
2026-05-05 19:05 32.69279 -16.77815 165 ft 5 kts 138°
2026-05-05 19:05 32.69256 -16.77791 165 ft 2 kts 138°
2026-05-05 19:05 32.69254 -16.77788 165 ft 0 kts 138°